Weather History for KORS - October, 2011

Change the Weather History Date:

Sunday, October 23, 2011

  Actual Average (KBLI) Record (KBLI)
Temperature  
Mean Temperature 48 °F 48 °F  
Max Temperature 55 °F 56 °F 69 °F (2007)
Min Temperature 42 °F 41 °F 30 °F (1954)
Degree Days  
Heating Degree Days 16 17  
Month to date heating degree days 330  
Cooling Degree Days 0 0  
Month to date cooling degree days 0  
Year to date cooling degree days 42  
Moisture  
Dew Point 45 °F    
Average Humidity 82    
Maximum Humidity 100    
Minimum Humidity 58    
Precipitation  
Precipitation 0.00 in 0.14 in 1.06 in (2009)
Month to date precipitation 2.43  
Year to date precipitation 24.56  
Sea Level Pressure  
Sea Level Pressure 30.16 in    
Wind  
Wind Speed 2 mph (SSW)    
Max Wind Speed 8 mph    
Max Gust Speed -    
Visibility 10 miles    
Events      
T = Trace of Precipitation, MM = Missing Value Source: NWS Daily Summary

Daily Weather History Graph

Daily Weather History Graph

Search for Another Location

Airport or City:

Trip Planner

Search our weather history database for the weather conditions in past years. The results will help you decide how hot, cold, wet, or windy it might be!

Date:

Astronomy

Oct. 23, 2011 Rise Set
Actual Time 7:43 AM PDT 6:07 PM PDT
Civil Twilight 7:11 AM PDT 6:39 PM PDT
Nautical Twilight 6:34 AM PDT 7:16 PM PDT
Astronomical Twilight 5:58 AM PDT 7:52 PM PDT
Moon 3:41 AM PDT (10/23) 4:13 PM PDT (10/23)
Length of Visible Light 11h 27m
Length of Day
10h 23m
Waning Crescent, 13% of the Moon is Illuminated
Oct 23
Waning Crescent
Oct 26
New
Nov 2
First Quarter
Nov 10
Full
Nov 18
Last Quarter

Hourly Weather History & Observations

Time (PDT) Temp. Windchill Dew Point Humidity Pressure Visibility Wind Dir Wind Speed Gust Speed Precip Events Conditions
12:15 AM 50.0 °F - 48.2 °F 94% 30.14 in 10.0 mi Calm Calm - N/A   Clear
12:35 AM 48.2 °F - 46.4 °F 93% 30.14 in 10.0 mi Calm Calm - N/A   Clear
12:55 AM 48.2 °F - 46.4 °F 93% 30.15 in 10.0 mi SSW 4.6 mph - N/A   Clear
1:15 AM 50.0 °F - 46.4 °F 87% 30.15 in 10.0 mi SSW 8.1 mph - N/A   Clear
1:35 AM 48.2 °F - 46.4 °F 93% 30.15 in 10.0 mi SSW 8.1 mph - N/A   Clear
1:55 AM 50.0 °F - 46.4 °F 87% 30.15 in 10.0 mi South 6.9 mph - N/A   Clear
2:15 AM 53.6 °F - 44.6 °F 72% 30.16 in 10.0 mi South 5.8 mph - N/A   Clear
2:35 AM 51.8 °F - 46.4 °F 82% 30.16 in 10.0 mi South 3.5 mph - N/A   Clear
2:55 AM 53.6 °F - 42.8 °F 67% 30.17 in 10.0 mi SSW 4.6 mph - N/A   Clear
3:15 AM 53.6 °F - 44.6 °F 72% 30.17 in 10.0 mi South 4.6 mph - N/A   Clear
3:35 AM 53.6 °F - 44.6 °F 72% 30.17 in 10.0 mi SSW 5.8 mph - N/A   Clear
3:55 AM 50.0 °F - 44.6 °F 82% 30.17 in 10.0 mi South 4.6 mph - N/A   Clear
4:15 AM 48.2 °F - 46.4 °F 93% 30.17 in 10.0 mi SSW 4.6 mph - N/A   Clear
4:35 AM 48.2 °F - 46.4 °F 93% 30.17 in 10.0 mi Calm Calm - N/A   Clear
4:55 AM 48.2 °F - 44.6 °F 87% 30.16 in 10.0 mi Calm Calm - N/A   Clear
5:15 AM 48.2 °F - 44.6 °F 87% 30.16 in 10.0 mi South 3.5 mph - N/A   Clear
5:35 AM 46.4 °F 45.2 °F 44.6 °F 93% 30.17 in 10.0 mi South 3.5 mph - N/A   Clear
5:55 AM 46.4 °F 45.2 °F 44.6 °F 93% 30.17 in 10.0 mi SSW 3.5 mph - N/A   Clear
6:15 AM 46.4 °F 45.2 °F 44.6 °F 93% 30.17 in 10.0 mi South 3.5 mph - N/A   Clear
6:35 AM 46.4 °F 45.2 °F 44.6 °F 93% 30.17 in 10.0 mi SSW 3.5 mph - N/A   Clear
6:55 AM 46.4 °F 43.5 °F 44.6 °F 93% 30.16 in 10.0 mi South 5.8 mph - N/A   Clear
7:15 AM 46.4 °F - 44.6 °F 93% 30.17 in 10.0 mi Calm Calm - N/A   Clear
7:35 AM 44.6 °F - 42.8 °F 93% 30.17 in 10.0 mi Calm Calm - N/A   Clear
7:55 AM 42.8 °F - 41.0 °F 93% 30.17 in 10.0 mi Calm Calm - N/A   Clear
8:15 AM 44.6 °F - 42.8 °F 93% 30.18 in 10.0 mi Calm Calm - N/A   Clear
8:35 AM 42.8 °F - 41.0 °F 93% 30.18 in 10.0 mi Calm Calm - N/A   Clear
8:55 AM 44.6 °F - 44.6 °F 100% 30.18 in 10.0 mi Calm Calm - N/A   Clear
9:15 AM 48.2 °F - 44.6 °F 87% 30.19 in 10.0 mi Calm Calm - N/A   Clear
9:35 AM 50.0 °F - 46.4 °F 87% 30.19 in 10.0 mi Calm Calm - N/A   Clear
9:55 AM 51.8 °F - 46.4 °F 82% 30.19 in 10.0 mi Calm Calm - N/A   Clear
10:35 AM 53.6 °F - 46.4 °F 77% 30.19 in 10.0 mi South 3.5 mph - N/A   Clear
10:55 AM 53.6 °F - 46.4 °F 77% 30.19 in 10.0 mi Calm Calm - N/A   Clear
11:15 AM 53.6 °F - 46.4 °F 77% 30.19 in 10.0 mi SSW 3.5 mph - N/A   Clear
11:35 AM 53.6 °F - 46.4 °F 77% 30.19 in 10.0 mi Calm Calm - N/A   Clear
11:55 AM 53.6 °F - 42.8 °F 67% 30.19 in 10.0 mi Calm Calm - N/A   Clear
12:15 PM 53.6 °F - 44.6 °F 72% 30.19 in 10.0 mi Calm Calm - N/A   Clear
12:35 PM 53.6 °F - 44.6 °F 72% 30.18 in 10.0 mi North 3.5 mph - N/A   Clear
12:55 PM 53.6 °F - 44.6 °F 72% 30.18 in 10.0 mi Calm Calm - N/A   Clear
1:15 PM 53.6 °F - 44.6 °F 72% 30.17 in 10.0 mi Calm Calm - N/A   Clear
1:35 PM 53.6 °F - 46.4 °F 77% 30.17 in 10.0 mi NE 4.6 mph - N/A   Clear
1:55 PM 53.6 °F - 42.8 °F 67% 30.16 in 10.0 mi North 3.5 mph - N/A   Clear
2:15 PM 53.6 °F - 41.0 °F 62% 30.16 in 10.0 mi Calm Calm - N/A   Clear
2:35 PM 55.4 °F - 41.0 °F 58% 30.15 in 10.0 mi Calm Calm - N/A   Clear
2:55 PM 53.6 °F - 42.8 °F 67% 30.15 in 10.0 mi North 4.6 mph - N/A   Clear
3:15 PM 53.6 °F - 41.0 °F 62% 30.14 in 10.0 mi Calm Calm - N/A   Clear
3:35 PM 53.6 °F - 44.6 °F 72% 30.14 in 10.0 mi NNE 3.5 mph - N/A   Clear
3:55 PM 53.6 °F - 41.0 °F 62% 30.13 in 10.0 mi Calm Calm - N/A   Clear
4:15 PM 53.6 °F - 44.6 °F 72% 30.13 in 10.0 mi Calm Calm - N/A   Clear
4:35 PM 53.6 °F - 46.4 °F 77% 30.12 in 10.0 mi Calm Calm - N/A   Scattered Clouds
4:55 PM 53.6 °F - 46.4 °F 77% 30.12 in 10.0 mi Calm Calm - N/A   Partly Cloudy
5:15 PM 50.0 °F - 46.4 °F 87% 30.12 in 10.0 mi NNW 3.5 mph - N/A   Clear
5:35 PM 48.2 °F - 46.4 °F 93% 30.12 in 10.0 mi Calm Calm - N/A   Clear
5:55 PM 48.2 °F - 46.4 °F 93% 30.12 in 10.0 mi Calm Calm - N/A   Clear
6:15 PM 48.2 °F - 44.6 °F 87% 30.12 in 8.0 mi Calm Calm - N/A   Mostly Cloudy
6:35 PM 48.2 °F - 42.8 °F 82% 30.11 in 10.0 mi Calm Calm - N/A   Scattered Clouds
6:55 PM 46.4 °F - 44.6 °F 93% 30.11 in 10.0 mi Calm Calm - N/A   Partly Cloudy
7:35 PM 44.6 °F 42.2 °F 42.8 °F 93% 30.11 in 10.0 mi South 4.6 mph - N/A   Partly Cloudy
7:55 PM 46.4 °F - 44.6 °F 93% 30.11 in 10.0 mi Calm Calm - N/A   Scattered Clouds
8:15 PM 46.4 °F - 44.6 °F 93% 30.11 in 10.0 mi Calm Calm - N/A   Mostly Cloudy
8:35 PM 46.4 °F - 44.6 °F 93% 30.11 in 10.0 mi Calm Calm - N/A   Partly Cloudy
8:55 PM 46.4 °F - 44.6 °F 93% 30.11 in 10.0 mi Calm Calm - N/A   Clear
9:15 PM 44.6 °F - 42.8 °F 93% 30.11 in 10.0 mi Calm Calm - N/A   Partly Cloudy
9:35 PM 46.4 °F 45.2 °F 44.6 °F 93% 30.11 in 10.0 mi South 3.5 mph - N/A   Partly Cloudy
9:55 PM 44.6 °F 43.1 °F 44.6 °F 100% 30.11 in 10.0 mi South 3.5 mph - N/A   Scattered Clouds
10:15 PM 44.6 °F - 44.6 °F 100% 30.11 in 10.0 mi North - - N/A   Mostly Cloudy
10:35 PM 44.6 °F - 42.8 °F 93% 30.11 in 10.0 mi Calm Calm - N/A   Partly Cloudy
10:55 PM 44.6 °F - 42.8 °F 93% 30.11 in 10.0 mi Calm Calm - N/A   Partly Cloudy
11:15 PM 44.6 °F 42.2 °F 42.8 °F 93% 30.11 in 10.0 mi SSW 4.6 mph - N/A   Clear
11:35 PM 42.8 °F 40.1 °F 41.0 °F 93% 30.11 in 10.0 mi South 4.6 mph - N/A   Clear
11:55 PM 42.8 °F 41.1 °F 41.0 °F 93% 30.12 in 10.0 mi South 3.5 mph - N/A   Clear